User: anonymous   Login
Location: Salamanca
(40.9670°N, 5.6500°W)
Time: 15:30:03
(UTC+01:00)
Language:

Cosmos 1633 Rocket - Orbit

View from above orbital plane
View from above orbital plane
View from above satellite
View from above satellite

Ground track
Ground track

The orbit data is extracted from the following two-line orbital elements,

1 15593U 85020B   16339.48905145  .00000113  00000-0  10606-4 0  9998
2 15593  82.5389  84.8518 0010776 329.5523 100.0204 14.84247648715495
Epoch (UTC): 04 December 2016 11:44:14
Eccentricity: 0.0010776
inclination: 82.5389°
perigee height: 608 km
apogee height: 623 km
right ascension of ascending node: 84.8518°
argument of perigee: 329.5523°
revolutions per day: 14.84247648
mean anomaly at epoch: 100.0204°
orbit number at epoch: 71549

The dashed part of the orbit path shows where the satellite is in the earth's shadow,  

DLR